When you browse on this site, cookies collect data to enhance your experience and personalize the content and advertising you see.
Visit our Privacy Policy to learn more. By continuing to use the site, you agree to this use of cookies and data.
  • In Portugal
  • List of Countries
  • For 7 days
  • Water Temperature
  • Weather Map
  • Weather Widgets
  • user-avatar
    Login

    Hourly Weather Kalyal

    Today, 25 August, Sunday

    Time Temperature Precipitation Wind Pressure Humidity
    00:00 +14°C° 0 mm 1 mps 602 mmHg 62%
    01:00 +14°C° 0 mm 1 mps 602 mmHg 60%
    02:00 +14°C° 0 mm 1 mps 602 mmHg 59%
    03:00 +14°C° 0 mm 1 mps 602 mmHg 58%
    04:00 +14°C° 0 mm 1 mps 602 mmHg 59%
    05:00 +14°C° 0 mm 1 mps 602 mmHg 59%
    06:00 +14°C° 0 mm 1 mps 602 mmHg 60%
    07:00 +16°C° 0 mm 1 mps 603 mmHg 52%
    08:00 +19°C° 0 mm 1 mps 605 mmHg 45%
    09:00 +21°C° 0 mm 2 mps 606 mmHg 38%
    10:00 +21°C° 0 mm 2 mps 606 mmHg 37%
    11:00 +23°C° 0 mm 2 mps 606 mmHg 37%
    12:00 +22°C° 0 mm 3 mps 605 mmHg 36%
    13:00 +22°C° 0.1 mm 3 mps 605 mmHg 36%
    14:00 +24°C° 0.1 mm 3 mps 605 mmHg 36%
    15:00 +24°C° 0.1 mm 3 mps 605 mmHg 36%
    16:00 +21°C° 0.1 mm 2 mps 604 mmHg 41%
    17:00 +20°C° 0.1 mm 2 mps 604 mmHg 46%
    18:00 +20°C° 0.1 mm 1 mps 603 mmHg 51%
    19:00 +19°C° 0 mm 1 mps 603 mmHg 52%
    20:00 +18°C° 0 mm 1 mps 603 mmHg 52%
    21:00 +16°C° 0 mm 1 mps 603 mmHg 52%
    22:00 +15°C° 0 mm 1 mps 603 mmHg 54%
    23:00 +14°C° 0 mm 1 mps 602 mmHg 56%

    Tomorrow, 26 August, Monday

    Time Temperature Precipitation Wind Pressure Humidity
    00:00 +13°C° 0 mm 1 mps 602 mmHg 58%
    01:00 +12°C° 0 mm 1 mps 602 mmHg 59%
    02:00 +12°C° 0 mm 1 mps 602 mmHg 61%
    03:00 +11°C° 0 mm 0 mps 602 mmHg 62%
    04:00 +11°C° 0 mm 0 mps 602 mmHg 62%
    05:00 +12°C° 0 mm 0 mps 603 mmHg 61%
    06:00 +13°C° 0 mm 0 mps 603 mmHg 61%
    07:00 +15°C° 0 mm 1 mps 604 mmHg 56%
    08:00 +18°C° 0 mm 1 mps 605 mmHg 52%
    09:00 +19°C° 0 mm 2 mps 606 mmHg 47%
    10:00 +19°C° 0.1 mm 2 mps 606 mmHg 46%
    11:00 +20°C° 0.1 mm 3 mps 606 mmHg 46%
    12:00 +20°C° 0.1 mm 3 mps 606 mmHg 46%
    13:00 +20°C° 0.2 mm 3 mps 606 mmHg 45%
    14:00 +20°C° 0.2 mm 3 mps 606 mmHg 45%
    15:00 +20°C° 0.2 mm 2 mps 606 mmHg 45%
    16:00 +19°C° 0.1 mm 2 mps 605 mmHg 49%
    17:00 +18°C° 0.1 mm 2 mps 605 mmHg 54%
    18:00 +18°C° 0.1 mm 1 mps 605 mmHg 59%
    19:00 +15°C° 0 mm 1 mps 604 mmHg 61%
    20:00 +14°C° 0 mm 1 mps 604 mmHg 64%
    21:00 +12°C° 0 mm 1 mps 604 mmHg 67%
    22:00 +12°C° 0 mm 1 mps 604 mmHg 70%
    23:00 +11°C° 0 mm 1 mps 603 mmHg 73%

    Day after tomorrow, 27 August, Tuesday

    Time Temperature Precipitation Wind Pressure Humidity
    00:00 +11°C° 0 mm 1 mps 603 mmHg 76%
    01:00 +11°C° 0 mm 1 mps 603 mmHg 76%
    02:00 +11°C° 0 mm 1 mps 603 mmHg 75%
    03:00 +11°C° 0 mm 1 mps 603 mmHg 74%
    04:00 +11°C° 0 mm 1 mps 603 mmHg 72%
    05:00 +11°C° 0 mm 1 mps 603 mmHg 70%
    06:00 +12°C° 0 mm 1 mps 603 mmHg 68%
    07:00 +13°C° 0 mm 1 mps 604 mmHg 63%
    08:00 +15°C° 0 mm 2 mps 604 mmHg 57%
    09:00 +17°C° 0 mm 2 mps 605 mmHg 52%
    10:00 +18°C° 0.1 mm 2 mps 605 mmHg 52%
    11:00 +18°C° 0.1 mm 3 mps 605 mmHg 52%
    12:00 +19°C° 0.1 mm 3 mps 605 mmHg 52%
    13:00 +19°C° 0.3 mm 3 mps 605 mmHg 52%
    14:00 +20°C° 0.3 mm 3 mps 605 mmHg 53%
    15:00 +20°C° 0.3 mm 3 mps 604 mmHg 53%
    16:00 +19°C° 0.2 mm 2 mps 604 mmHg 57%
    17:00 +18°C° 0.2 mm 2 mps 603 mmHg 62%
    18:00 +17°C° 0.2 mm 2 mps 603 mmHg 66%
    19:00 +15°C° 0 mm 2 mps 602 mmHg 70%
    20:00 +14°C° 0 mm 1 mps 602 mmHg 73%
    21:00 +12°C° 0 mm 1 mps 601 mmHg 77%
    22:00 +12°C° 0 mm 1 mps 601 mmHg 76%
    23:00 +12°C° 0 mm 1 mps 601 mmHg 76%

    28 August, Wednesday

    Time Temperature Precipitation Wind Pressure Humidity
    00:00 +12°C° 0 mm 1 mps 601 mmHg 75%
    01:00 +12°C° 0 mm 1 mps 600 mmHg 75%
    02:00 +11°C° 0 mm 1 mps 600 mmHg 75%
    03:00 +10°C° 0 mm 0 mps 600 mmHg 75%
    04:00 +10°C° 0 mm 0 mps 600 mmHg 74%
    05:00 +11°C° 0 mm 0 mps 600 mmHg 73%
    06:00 +11°C° 0 mm 0 mps 601 mmHg 72%
    07:00 +14°C° 0 mm 1 mps 601 mmHg 66%
    08:00 +16°C° 0 mm 1 mps 602 mmHg 59%
    09:00 +18°C° 0 mm 2 mps 603 mmHg 53%
    10:00 +19°C° 0.2 mm 2 mps 603 mmHg 52%
    11:00 +20°C° 0.2 mm 3 mps 604 mmHg 51%
    12:00 +20°C° 0.2 mm 3 mps 604 mmHg 50%
    13:00 +21°C° 0.2 mm 3 mps 604 mmHg 49%
    14:00 +21°C° 0.2 mm 3 mps 603 mmHg 49%
    15:00 +21°C° 0.2 mm 3 mps 603 mmHg 49%
    16:00 +20°C° 0 mm 2 mps 603 mmHg 54%
    17:00 +18°C° 0 mm 2 mps 602 mmHg 59%
    18:00 +18°C° 0 mm 1 mps 602 mmHg 65%
    19:00 +16°C° 0 mm 1 mps 602 mmHg 69%
    20:00 +14°C° 0 mm 1 mps 601 mmHg 73%
    21:00 +13°C° 0 mm 1 mps 601 mmHg 78%
    22:00 +12°C° 0 mm 1 mps 601 mmHg 80%
    23:00 +12°C° 0 mm 1 mps 601 mmHg 82%

    29 August, Thursday

    Time Temperature Precipitation Wind Pressure Humidity
    00:00 +11°C° 0 mm 1 mps 601 mmHg 84%
    01:00 +11°C° 0 mm 1 mps 601 mmHg 85%
    02:00 +11°C° 0 mm 1 mps 601 mmHg 86%
    03:00 +10°C° 0 mm 1 mps 600 mmHg 88%
    04:00 +11°C° 0 mm 1 mps 601 mmHg 88%
    05:00 +11°C° 0 mm 1 mps 601 mmHg 87%
    06:00 +11°C° 0 mm 1 mps 601 mmHg 87%
    07:00 +13°C° 0 mm 2 mps 602 mmHg 81%
    08:00 +15°C° 0 mm 2 mps 603 mmHg 76%
    09:00 +17°C° 0 mm 3 mps 604 mmHg 70%
    10:00 +17°C° 0.1 mm 3 mps 604 mmHg 69%
    11:00 +18°C° 0.1 mm 3 mps 604 mmHg 68%
    12:00 +18°C° 0.1 mm 3 mps 604 mmHg 67%
    13:00 +18°C° 0.1 mm 3 mps 604 mmHg 67%
    14:00 +18°C° 0.1 mm 3 mps 604 mmHg 66%
    15:00 +19°C° 0.1 mm 2 mps 603 mmHg 66%
    16:00 +18°C° 0.1 mm 2 mps 603 mmHg 69%
    17:00 +17°C° 0.1 mm 2 mps 603 mmHg 72%
    18:00 +16°C° 0.1 mm 2 mps 602 mmHg 75%
    19:00 +15°C° 0 mm 2 mps 602 mmHg 77%
    20:00 +15°C° 0 mm 2 mps 602 mmHg 79%
    21:00 +14°C° 0 mm 2 mps 603 mmHg 81%
    22:00 +13°C° 0 mm 1 mps 602 mmHg 83%
    23:00 +12°C° 0 mm 1 mps 602 mmHg 85%

    30 August, Friday

    Time Temperature Precipitation Wind Pressure Humidity
    00:00 +11°C° 0 mm 1 mps 601 mmHg 87%
    01:00 +11°C° 0 mm 1 mps 601 mmHg 88%
    02:00 +10°C° 0 mm 1 mps 601 mmHg 88%
    03:00 +10°C° 0 mm 1 mps 600 mmHg 89%
    04:00 +10°C° 0.1 mm 1 mps 601 mmHg 90%
    05:00 +11°C° 0.1 mm 1 mps 601 mmHg 90%
    06:00 +11°C° 0.1 mm 1 mps 601 mmHg 91%
    07:00 +12°C° 0 mm 1 mps 602 mmHg 89%
    08:00 +13°C° 0 mm 2 mps 602 mmHg 86%
    09:00 +14°C° 0 mm 2 mps 602 mmHg 84%
    10:00 +14°C° 0.1 mm 2 mps 603 mmHg 83%
    11:00 +15°C° 0.1 mm 2 mps 603 mmHg 82%
    12:00 +14°C° 0.1 mm 3 mps 603 mmHg 81%
    13:00 +14°C° 0 mm 3 mps 603 mmHg 80%
    14:00 +16°C° 0 mm 3 mps 603 mmHg 80%
    15:00 +16°C° 0 mm 3 mps 603 mmHg 79%
    16:00 +15°C° 0 mm 2 mps 602 mmHg 83%
    17:00 +14°C° 0 mm 2 mps 602 mmHg 86%
    18:00 +13°C° 0 mm 1 mps 602 mmHg 90%
    19:00 +13°C° 0.2 mm 1 mps 602 mmHg 92%
    20:00 +12°C° 0.2 mm 1 mps 602 mmHg 95%
    21:00 +11°C° 0.2 mm 1 mps 601 mmHg 97%
    22:00 +11°C° 0 mm 1 mps 601 mmHg 96%
    23:00 +11°C° 0 mm 1 mps 601 mmHg 96%
    Show more